Location: Domont
(49.0278°N, 2.3264°E)
Time: 19:04:16
(UTC+00:00)

AO-73 - Pass Details

Date: 07 July 2022
Orbit: 579 x 656 km, 97.6° (Epoch: 08 August)

Event Time Altitude Azimuth Distance (km) Brightness Sun altitude
Rises 02:25:10 0° 33° (NNE) 2,981 ? -11.0°
Reaches altitude 10° 02:29:18 10° 71° (ENE) 2,072 ? -10.6°
Maximum altitude 02:30:27 11° 85° (E) 2,015 ? -10.5°
Drops below altitude 10° 02:31:36 10° 100° (E) 2,071 ? -10.4°
Sets 02:35:43 0° 137° (SE) 2,976 ? -10.0°
